Location: Unspecified
(0.0000°N, 0.0000°E)
Time: 20:54:21
(UTC+00:00)

USA 278 - Pass Details

Date: 12 June 2023
Orbit: 1731 x 38625 km, 63.0° (Epoch: 06 September)

Event Time Altitude Azimuth Distance (km) Brightness Sun altitude
Exits shadow 02:28:00 38° 275° (W) 9,560 ? -47.2°
Maximum altitude 13:15:52 63° 261° (W) 7,230 ? 60.4°
Drops below altitude 10° 13:35:06 10° 176° (S) 5,737 ? 57.3°
Sets 13:37:39 0° 171° (S) 6,218 ? 56.8°
